Starlink 30819

operational
NORAD ID: 58179 Int'l Des: 2023-167 Owner: SPXS Country: US Constellation: starlink
LEOCIRCULAR

About Starlink 30819

Description loading...

Live Position

Loading 3D Globe...

Upcoming Passes

Altitude History

Altitude vs Time

uPlot chart will show altitude changes over time

Two-Line Element Set

1 58179U 23167E 25302.61719203 .00000111 00000-0 23295-4 0 9998
2 58179 43.0031 138.5611 0001164 264.5057 95.5652 15.02538463111236
Epoch: Oct 29, 2025 • Age: 26 hours

Current Status

Altitude 563.8 km
Velocity 7.58 km/s
Sub-Earth Point -22.20°S, 39.81°E
Launch Date Oct 30, 2023
Age 1.9 years
Type internet

Technical Details

Classification Payload
Mass 730.00 kg
Dry Mass 700.00 kg
Total Mass 730.00 kg
Length 0.30 m
Diameter 4.10 m
Span 29.00 m
Shape Box + pan
Manufacturer SPXS
Bus Type Starlink V2M
Phase Status In Orbit
Owner/State SPXS/US

Large Constellations

Loading constellations...